星链-6257 (STARLINK-6257 )

导读 | 星芒AI

STARLINK-6257 是 SpaceX Starlink 项目中的一颗低轨通信卫星,属于第 25 批组网发射的卫星之一。该卫星运行在约 550 公里的高度,旨在为全球提供高速互联网服务。Starlink 卫星采用先进推进系统和激光通信技术,以实现高效数据传输和轨道自主调整。STARLINK-6257 与其他 Starlink 卫星协同工作,提升网络覆盖与连接稳定性,尤其在偏远地区发挥重要作用。

基本信息
目录编号:
57088
目录名称:
STARLINK-6257
国际标识:
2023-088AS
轨道中心:
EARTH
卫星名称:
星链-6257
卫星全名:
星链-6257 (STARLINK-6257 )
卫星状态:
在轨 (已飞行865 天)
发射日期:
2023-06-22 UTC
国别 :
美国 (US)
星等 :
--
轨道信息
数据来源 国际轨道数据
星历时间: 2025-11-02T00:26:32+0800
2天前
查看轨道信息
半长轴: 6937.232km
偏心率: 0.0001073
轨道倾角: 43.003°
近地点辐角 268.392°
升交点赤经 70.079°
平近点角 91.680°
近地点: 558.352km
远地点: 559.842km
周期: 95.838分钟
每日圈数: 15.025313
详细信息
固有亮度:
5
最大亮度:
2.4
卫星平台:
Starlink v1.5
覆盖范围:
全球
运营商:
太空探索技术公司
运营商所在国:
美国
制造商(研发单位):
太空探索技术公司
制造商所在国:
美国
使用方式:
暂无
卫星简介
星链(Starlink)计划是由太空探索技术公司(SpaceX)提出的一个巨型低轨卫星互联网星座项目,计划在2019年至2024年间在太空搭建由约1.2万颗卫星组成的“星链”网络,其中1584颗将部署在地球上空550千米处的近地轨道,并从2020年开始工作。该卫星仍在工作。
2D轨道图
3D轨道图
轨道高度分析图
轨道倾角分析图
轨道综合分析图
查看轨道综合分析图